TimeEST,TemperatureF,Dew PointF,Humidity,Sea Level PressureIn,VisibilityMPH,Wind Direction,Wind SpeedMPH,Gust SpeedMPH,PrecipitationIn,Events,Conditions,WindDirDegrees,DateUTC
12:15 AM,37.4,32.0,81,29.92,10.0,ESE,5.8,-,N/A,,Overcast,120,2013-12-04 05:15:00
12:35 AM,37.4,33.8,87,29.91,10.0,East,5.8,-,N/A,,Overcast,100,2013-12-04 05:35:00
12:55 AM,37.4,33.8,87,29.91,10.0,East,5.8,-,N/A,,Scattered Clouds,100,2013-12-04 05:55:00
1:15 AM,37.4,32.0,81,29.91,9.0,ESE,6.9,-,N/A,,Mostly Cloudy,110,2013-12-04 06:15:00
1:35 AM,37.4,33.8,87,29.91,10.0,ESE,6.9,-,N/A,,Mostly Cloudy,120,2013-12-04 06:35:00
1:55 AM,37.4,33.8,87,29.93,10.0,Calm,Calm,-,N/A,,Mostly Cloudy,0,2013-12-04 06:55:00
2:15 AM,37.4,32.0,81,29.94,10.0,ESE,4.6,-,N/A,,Overcast,120,2013-12-04 07:15:00
2:35 AM,37.4,33.8,87,29.93,10.0,SE,8.1,-,N/A,,Overcast,130,2013-12-04 07:35:00
2:55 AM,37.4,33.8,87,29.94,10.0,Calm,Calm,-,N/A,,Overcast,0,2013-12-04 07:55:00
3:15 AM,37.4,33.8,87,29.93,10.0,East,4.6,-,N/A,,Mostly Cloudy,100,2013-12-04 08:15:00
3:35 AM,37.4,33.8,87,29.92,10.0,East,4.6,-,N/A,,Partly Cloudy,100,2013-12-04 08:35:00
3:55 AM,37.4,32.0,81,29.92,8.0,East,5.8,-,N/A,,Clear,100,2013-12-04 08:55:00
4:15 AM,35.6,32.0,87,29.91,7.0,ESE,6.9,-,N/A,,Clear,110,2013-12-04 09:15:00
4:35 AM,35.6,32.0,87,29.91,7.0,East,5.8,-,N/A,,Mostly Cloudy,100,2013-12-04 09:35:00
4:55 AM,35.6,32.0,87,29.91,7.0,East,5.8,-,N/A,,Overcast,100,2013-12-04 09:55:00
5:15 AM,35.6,32.0,87,29.91,7.0,ESE,9.2,-,N/A,,Overcast,110,2013-12-04 10:15:00
5:35 AM,35.6,32.0,87,29.92,7.0,East,4.6,-,N/A,,Overcast,100,2013-12-04 10:35:00
5:55 AM,35.6,32.0,87,29.92,7.0,East,5.8,-,N/A,,Partly Cloudy,100,2013-12-04 10:55:00
6:15 AM,35.6,30.2,81,29.94,6.0,East,3.5,-,N/A,,Clear,100,2013-12-04 11:15:00
6:35 AM,35.6,30.2,81,29.94,6.0,Calm,Calm,-,N/A,,Mostly Cloudy,0,2013-12-04 11:35:00
6:55 AM,35.6,32.0,87,29.95,7.0,ESE,3.5,-,N/A,,Overcast,110,2013-12-04 11:55:00
7:15 AM,37.4,33.8,87,29.96,7.0,Calm,Calm,-,N/A,,Overcast,0,2013-12-04 12:15:00
7:35 AM,37.4,33.8,87,29.97,5.0,ESE,4.6,-,N/A,,Overcast,120,2013-12-04 12:35:00
7:55 AM,35.6,32.0,87,29.97,5.0,ESE,4.6,-,N/A,,Overcast,120,2013-12-04 12:55:00
8:15 AM,37.4,32.0,81,29.99,5.0,Calm,Calm,-,N/A,,Overcast,0,2013-12-04 13:15:00
8:35 AM,37.4,32.0,81,29.98,5.0,ESE,4.6,-,N/A,,Overcast,120,2013-12-04 13:35:00
8:55 AM,37.4,33.8,87,29.99,5.0,East,3.5,-,N/A,,Overcast,100,2013-12-04 13:55:00
9:15 AM,37.4,33.8,87,29.99,6.0,East,4.6,-,N/A,,Overcast,100,2013-12-04 14:15:00
9:35 AM,37.4,33.8,87,29.99,7.0,East,3.5,-,N/A,,Overcast,90,2013-12-04 14:35:00
9:55 AM,39.2,33.8,81,29.99,8.0,ESE,5.8,-,N/A,,Mostly Cloudy,120,2013-12-04 14:55:00
10:15 AM,41.0,33.8,76,29.99,9.0,ESE,5.8,-,N/A,,Mostly Cloudy,110,2013-12-04 15:15:00
10:35 AM,42.8,35.6,76,29.99,10.0,ESE,5.8,-,N/A,,Overcast,110,2013-12-04 15:35:00
10:55 AM,44.6,35.6,71,29.98,10.0,SE,5.8,-,N/A,,Mostly Cloudy,140,2013-12-04 15:55:00
11:15 AM,44.6,35.6,71,29.98,10.0,SSE,6.9,-,N/A,,Partly Cloudy,160,2013-12-04 16:15:00
11:35 AM,46.4,35.6,66,29.97,10.0,SSE,8.1,-,N/A,,Clear,150,2013-12-04 16:35:00
11:55 AM,46.4,35.6,66,29.97,10.0,SSE,3.5,-,N/A,,Clear,160,2013-12-04 16:55:00
12:15 PM,46.4,35.6,66,29.96,9.0,SSE,8.1,-,N/A,,Clear,150,2013-12-04 17:15:00
12:35 PM,46.4,35.6,66,29.95,8.0,SSE,6.9,-,N/A,,Clear,150,2013-12-04 17:35:00
12:55 PM,46.4,35.6,66,29.95,10.0,SE,6.9,-,N/A,,Clear,140,2013-12-04 17:55:00
1:15 PM,46.4,37.4,71,29.94,10.0,SSE,6.9,-,N/A,,Mostly Cloudy,160,2013-12-04 18:15:00
1:35 PM,48.2,37.4,66,29.93,10.0,ESE,8.1,-,N/A,,Partly Cloudy,120,2013-12-04 18:35:00
1:55 PM,48.2,37.4,66,29.92,10.0,SE,9.2,-,N/A,,Clear,130,2013-12-04 18:55:00
2:15 PM,48.2,37.4,66,29.92,10.0,ESE,10.4,-,N/A,,Clear,110,2013-12-04 19:15:00
2:35 PM,48.2,37.4,66,29.91,10.0,SE,9.2,-,N/A,,Clear,130,2013-12-04 19:35:00
2:55 PM,48.2,39.2,71,29.91,10.0,ESE,8.1,-,N/A,,Clear,120,2013-12-04 19:55:00
3:15 PM,48.2,37.4,66,29.91,10.0,ESE,6.9,-,N/A,,Clear,120,2013-12-04 20:15:00
3:35 PM,46.4,39.2,76,29.91,10.0,ESE,9.2,-,N/A,,Clear,120,2013-12-04 20:35:00
3:55 PM,48.2,39.2,71,29.92,10.0,SE,6.9,-,N/A,,Clear,130,2013-12-04 20:55:00
4:15 PM,46.4,39.2,76,29.92,10.0,SE,8.1,-,N/A,,Clear,130,2013-12-04 21:15:00
4:35 PM,46.4,39.2,76,29.92,10.0,ESE,6.9,-,N/A,,Clear,110,2013-12-04 21:35:00
4:55 PM,46.4,39.2,76,29.92,10.0,ESE,6.9,-,N/A,,Clear,110,2013-12-04 21:55:00
5:15 PM,46.4,39.2,76,29.91,10.0,ESE,6.9,-,N/A,,Partly Cloudy,110,2013-12-04 22:15:00
5:35 PM,46.4,39.2,76,29.91,10.0,ESE,8.1,-,N/A,,Scattered Clouds,120,2013-12-04 22:35:00
5:55 PM,46.4,39.2,76,29.91,10.0,ESE,8.1,-,N/A,,Partly Cloudy,120,2013-12-04 22:55:00
6:15 PM,46.4,39.2,76,29.91,10.0,ESE,9.2,-,N/A,,Mostly Cloudy,120,2013-12-04 23:15:00
6:35 PM,46.4,39.2,76,29.90,10.0,SE,10.4,-,N/A,,Partly Cloudy,130,2013-12-04 23:35:00
6:55 PM,46.4,39.2,76,29.90,10.0,ESE,10.4,-,N/A,,Clear,120,2013-12-04 23:55:00
7:15 PM,46.4,39.2,76,29.90,10.0,ESE,10.4,-,N/A,,Clear,120,2013-12-05 00:15:00
7:35 PM,46.4,39.2,76,29.89,10.0,ESE,11.5,-,N/A,,Clear,120,2013-12-05 00:35:00
7:55 PM,46.4,39.2,76,29.89,10.0,SE,11.5,-,N/A,,Clear,130,2013-12-05 00:55:00
8:15 PM,46.4,39.2,76,29.89,10.0,SE,13.8,18.4,N/A,,Clear,130,2013-12-05 01:15:00
8:35 PM,46.4,39.2,76,29.89,10.0,SE,12.7,-,N/A,,Clear,140,2013-12-05 01:35:00
8:55 PM,48.2,39.2,71,29.89,10.0,SE,10.4,-,N/A,,Scattered Clouds,140,2013-12-05 01:55:00
9:15 PM,48.2,39.2,71,29.89,10.0,SE,12.7,-,N/A,,Overcast,140,2013-12-05 02:15:00
9:35 PM,48.2,39.2,71,29.89,10.0,SE,11.5,-,N/A,,Overcast,140,2013-12-05 02:35:00
9:55 PM,48.2,39.2,71,29.88,10.0,SE,11.5,-,N/A,,Overcast,140,2013-12-05 02:55:00
10:15 PM,48.2,39.2,71,29.88,10.0,SE,10.4,-,N/A,,Overcast,140,2013-12-05 03:15:00
10:35 PM,48.2,39.2,71,29.88,10.0,SE,12.7,-,N/A,,Overcast,140,2013-12-05 03:35:00
10:55 PM,48.2,39.2,71,29.89,10.0,SSE,9.2,-,N/A,,Overcast,150,2013-12-05 03:55:00
11:15 PM,48.2,39.2,71,29.89,10.0,SE,11.5,17.3,N/A,,Overcast,140,2013-12-05 04:15:00
11:35 PM,48.2,39.2,71,29.89,10.0,SE,11.5,18.4,N/A,,Mostly Cloudy,140,2013-12-05 04:35:00
11:55 PM,48.2,39.2,71,29.89,10.0,SE,11.5,-,N/A,,Overcast,140,2013-12-05 04:55:00